カタログに戻る

FENGYUN 1C DEB

運用中PO
NORAD 38157·DEBRIS·🇨🇳 China

打ち上げ May 10, 1999 から Taiyuan Satellite Launch Center

Loading…

次のパス (今後24時間)

TLE

最新Source: Space-Track

元期: Sep 14, 2026, 01:43 UTC

1 38157U 99025ERE 26257.07160705  .00001875  00000-0  58771-3 0  9999
2 38157  99.6585 195.5996 0271047  60.2446 302.5400 14.23027901801625

AllMySatでFENGYUN 1C DEBをリアルタイム追跡

Download on the App Store